Погода в Чайке

Россия / Пермский край     56°54′30″N   56°43′24″E
темп.,
°C
ветер,
м/с
пор.,
м/с
влажн.,
%
обл.,
%
осадки,
мм/ч
давл.,
гПа
погр.,
м
23 сентября, чт
чт2323:00+4в368549 0.0 102687
02:00+3в379043 0.0 1027121
05:00+2вюв259245 0.0 102886
08:00+2вюв258762 0.0 1028117
11:00+9вюв46595 0.0 1028556
14:00+12юв444938 0.0 1027999
17:00+13юв34525 0.0 10261014
20:00+7вюв33685 0.0 102738
24 сентября, пт
пт2423:00+6юв347322 0.0 102764
02:00+5юв227767 0.0 102625
05:00+4юв2280100 0.0 102617
08:00+6ююв2275100 0.0 102629
11:00+11ю4754100 0.0 1025374
14:00+14ююз464699 0.0 1024827
17:00+11ююв2258100 0.0 102425
20:00+11вюв3659100 0.0 1024118
25 сентября, сб
сб2523:00+9юв376241 0.0 1023126
02:00+7юв337347 0.0 102245
05:00+8в1167100 0.0 101916
08:00+6вюв3767100 0.0 1020131
11:00+12вюв5748100 0.0 1018399
14:00+15вюв684094 0.0 1017760
17:00+15юв51042100 0.0 1016508
20:00+12вюв51243100 0.0 1017373
26 сентября, вс
вс2623:00+11юв51046100 0.0 1017448
02:00+10вюв51147100 0.1 1017497
05:00+8юв71472100 0.1 1017616
08:00+8вюв71569100 0.1 1017584
11:00+10вюв91564100 0.1 1018767
14:00+11вюв91453100 0.0 10181108
17:00+10вюв81356100 0.0 10191298
20:00+8вюв71243100 0.0 10211226
27 сентября, пн
пн2723:00+7вюв61142100 0.0 10221267
02:00+6в7114849 0.0 1023887
05:00+3в71359100 0.0 1025641
08:00+2в71466100 0.0 1027691
11:00+5в8125441 0.0 1028973
14:00+8в810445 0.0 10291440
17:00+7всв89475 0.0 10301532
20:00+3всв712665 0.0 1032830